EXEC1F KATW-EIDW

Flight info

Callsign EXEC1F
Flight time N/A
Altitude 39000
Route GRB J101 SSM DCT MT DCT ROBBE DCT EXPOS DCT KODIK/M080F390 DCT 54N050W 54N040W 5330N03000W 53N020W DCT MALOT/N0465F390 DCT GISTI DCT LUPOR DCT WTD DCT BUNED BUNED4L
Aircraft B38M/M-SDE1FGHILORVWXY/HB1

Departure

Time 2026-05-07 20:32
Airport Appleton International Airport (KATW)

Arrival

Time N/A
Airport Dublin Airport (EIDW)
Time Latitude Longitude Altitude Speed Heading
2026-05-07 20:16 44.26506 -88.50999 891 ft 0 kts 90°
2026-05-07 20:28 44.26505 -88.50992 891 ft 2 kts 101°
2026-05-07 20:28 44.26497 -88.50982 891 ft 1 kts 158°
2026-05-07 20:29 44.26477 -88.50994 891 ft 6 kts 232°
2026-05-07 20:29 44.26480 -88.51076 891 ft 10 kts 290°
2026-05-07 20:29 44.26513 -88.51177 893 ft 11 kts 295°
2026-05-07 20:29 44.26542 -88.51261 898 ft 9 kts 295°
2026-05-07 20:30 44.26587 -88.51295 900 ft 7 kts 19°
2026-05-07 20:30 44.26646 -88.51254 900 ft 12 kts 25°
2026-05-07 20:30 44.26736 -88.51192 900 ft 15 kts 26°
2026-05-07 20:30 44.26797 -88.51158 900 ft 7 kts 358°
2026-05-07 20:31 44.26830 -88.51213 900 ft 9 kts 297°
2026-05-07 20:31 44.26837 -88.51283 899 ft 7 kts 237°
2026-05-07 20:31 44.26805 -88.51315 899 ft 6 kts 205°
2026-05-07 20:31 44.26696 -88.51390 902 ft 49 kts 206°
2026-05-07 20:32 44.26114 -88.51785 901 ft 133 kts 206°
2026-05-07 20:32 44.25131 -88.52432 1362 ft 167 kts 205°
2026-05-07 20:32 44.24183 -88.52966 2748 ft 144 kts 207°
2026-05-07 20:32 44.23192 -88.53577 3266 ft 165 kts 213°
2026-05-07 20:33 44.22125 -88.54391 3907 ft 184 kts 213°
2026-05-07 20:33 44.20887 -88.55162 4516 ft 211 kts 196°
2026-05-07 20:33 44.19304 -88.54989 5047 ft 251 kts 163°
2026-05-07 20:33 44.17799 -88.53568 5827 ft 276 kts 134°
2026-05-07 20:34 44.16845 -88.51171 6755 ft 288 kts 104°
2026-05-07 20:34 44.16691 -88.48398 7940 ft 290 kts 87°
2026-05-07 20:34 44.16806 -88.45540 8872 ft 302 kts 86°
2026-05-07 20:34 44.17339 -88.42710 9886 ft 303 kts 57°
2026-05-07 20:35 44.18694 -88.40449 10707 ft 311 kts 41°
2026-05-07 20:35 44.20185 -88.38121 11250 ft 332 kts 46°
2026-05-07 20:35 44.21698 -88.35596 11757 ft 353 kts 47°
2026-05-07 20:35 44.23288 -88.32897 12385 ft 367 kts 47°
2026-05-07 20:36 44.24918 -88.30103 13208 ft 373 kts 47°
2026-05-07 20:36 44.26559 -88.27280 14045 ft 378 kts 47°
2026-05-07 20:36 44.28219 -88.24422 14872 ft 381 kts 47°
2026-05-07 20:36 44.29896 -88.21529 15617 ft 386 kts 47°
2026-05-07 20:37 44.31594 -88.18597 16373 ft 390 kts 47°
2026-05-07 20:37 44.33307 -88.15637 17120 ft 394 kts 47°
2026-05-07 20:37 44.35036 -88.12647 17868 ft 398 kts 46°
2026-05-07 20:37 44.36784 -88.09620 18524 ft 402 kts 47°
2026-05-07 20:38 44.38546 -88.06564 19149 ft 406 kts 47°
2026-05-07 20:38 44.40324 -88.03477 19782 ft 409 kts 47°
2026-05-07 20:38 44.42117 -88.00362 20427 ft 413 kts 47°
2026-05-07 20:38 44.43926 -87.97217 21067 ft 416 kts 47°
2026-05-07 20:39 44.45725 -87.94085 21666 ft 420 kts 47°
2026-05-07 20:39 44.47560 -87.90887 22257 ft 423 kts 47°
2026-05-07 20:39 44.49411 -87.87657 22839 ft 426 kts 47°
2026-05-07 20:39 44.51276 -87.84399 23421 ft 430 kts 47°
2026-05-07 20:40 44.53152 -87.81120 23895 ft 433 kts 47°
2026-05-07 20:40 44.55043 -87.77811 24365 ft 436 kts 47°
2026-05-07 20:40 44.56948 -87.74471 24825 ft 439 kts 47°
2026-05-07 20:40 44.58865 -87.71107 25279 ft 442 kts 47°
2026-05-07 20:41 44.60792 -87.67721 25775 ft 445 kts 47°
2026-05-07 20:41 44.62728 -87.64317 26225 ft 448 kts 47°
2026-05-07 20:41 44.64675 -87.60887 26652 ft 451 kts 47°
2026-05-07 20:41 44.66639 -87.57426 27074 ft 454 kts 47°
2026-05-07 20:42 44.68615 -87.53938 27490 ft 457 kts 47°
2026-05-07 20:42 44.70598 -87.50432 27893 ft 460 kts 47°
2026-05-07 20:42 44.72596 -87.46897 28299 ft 463 kts 47°
2026-05-07 20:42 44.74601 -87.43343 28686 ft 466 kts 47°
2026-05-07 20:43 44.76622 -87.39760 29075 ft 468 kts 47°
2026-05-07 20:43 44.78652 -87.36154 29445 ft 471 kts 47°
2026-05-07 20:43 44.80668 -87.32569 29833 ft 474 kts 47°
2026-05-07 20:43 44.82717 -87.28920 30170 ft 476 kts 47°
2026-05-07 20:44 44.84778 -87.25246 30439 ft 479 kts 47°
2026-05-07 20:44 44.86851 -87.21545 30727 ft 482 kts 47°
2026-05-07 20:44 44.88927 -87.17836 31071 ft 482 kts 47°
2026-05-07 20:44 44.91011 -87.14109 31416 ft 484 kts 47°
2026-05-07 20:45 44.93097 -87.10374 31754 ft 485 kts 47°
2026-05-07 20:45 44.95183 -87.06631 32091 ft 486 kts 47°
2026-05-07 20:45 44.97274 -87.02875 32467 ft 486 kts 47°
2026-05-07 20:45 44.99365 -86.99116 32831 ft 487 kts 47°
2026-05-07 20:46 45.01456 -86.95350 33153 ft 488 kts 47°